• In Hungary
  • List of Countries
  • For 7 days
  • Water Temperature
  • Satellite Maps
  • Weather Map
  • News
  • Weather Widgets
  • user-avatar
    Login

    Hourly Weather Madinat 'Isa

    Today, 24 February, Saturday

    Time Temperature Precipitation Wind Pressure Humidity
    00:00 +23°C° 0 mm 4 mps 756 mmHg 53%
    01:00 +23°C° 0 mm 4 mps 756 mmHg 55%
    02:00 +22°C° 0 mm 4 mps 756 mmHg 57%
    03:00 +22°C° 0 mm 3 mps 756 mmHg 56%
    04:00 +22°C° 0 mm 4 mps 756 mmHg 57%
    05:00 +22°C° 0 mm 4 mps 756 mmHg 57%
    06:00 +23°C° 0 mm 5 mps 756 mmHg 57%
    07:00 +23°C° 0.1 mm 5 mps 756 mmHg 55%
    08:00 +25°C° 0.1 mm 4 mps 756 mmHg 53%
    09:00 +26°C° 0 mm 5 mps 756 mmHg 51%
    10:00 +26°C° 0.1 mm 4 mps 756 mmHg 51%
    11:00 +26°C° 0.1 mm 3 mps 756 mmHg 52%
    12:00 +26°C° 0.1 mm 2 mps 756 mmHg 52%
    13:00 +25°C° 0 mm 3 mps 756 mmHg 53%
    14:00 +25°C° 0 mm 4 mps 756 mmHg 54%
    15:00 +26°C° 0 mm 4 mps 755 mmHg 51%
    16:00 +25°C° 0.3 mm 4 mps 756 mmHg 56%
    17:00 +25°C° 0.3 mm 4 mps 756 mmHg 60%
    18:00 +23°C° 0.3 mm 4 mps 756 mmHg 65%
    19:00 +22°C° 1.7 mm 5 mps 756 mmHg 71%
    20:00 +21°C° 1.7 mm 5 mps 757 mmHg 77%
    21:00 +21°C° 1.7 mm 6 mps 757 mmHg 82%
    22:00 +21°C° 1.3 mm 5 mps 757 mmHg 82%
    23:00 +21°C° 1.3 mm 4 mps 757 mmHg 81%

    Tomorrow, 25 February, Sunday

    Time Temperature Precipitation Wind Pressure Humidity
    00:00 +21°C° 1.3 mm 4 mps 757 mmHg 81%
    01:00 +21°C° 2.3 mm 5 mps 757 mmHg 81%
    02:00 +21°C° 2.3 mm 6 mps 757 mmHg 81%
    03:00 +21°C° 2.3 mm 7 mps 757 mmHg 82%
    04:00 +20°C° 0.7 mm 6 mps 757 mmHg 80%
    05:00 +20°C° 0.7 mm 5 mps 757 mmHg 78%
    06:00 +20°C° 0.7 mm 4 mps 758 mmHg 76%
    07:00 +20°C° 0.2 mm 5 mps 758 mmHg 76%
    08:00 +20°C° 0.2 mm 5 mps 758 mmHg 75%
    09:00 +21°C° 0.2 mm 5 mps 758 mmHg 74%
    10:00 +21°C° 0.2 mm 5 mps 758 mmHg 71%
    11:00 +22°C° 0.2 mm 5 mps 758 mmHg 68%
    12:00 +23°C° 0.2 mm 5 mps 758 mmHg 65%
    13:00 +23°C° 0.1 mm 4 mps 758 mmHg 63%
    14:00 +25°C° 0.1 mm 4 mps 758 mmHg 61%
    15:00 +25°C° 0.1 mm 4 mps 758 mmHg 59%
    16:00 +25°C° 0 mm 3 mps 758 mmHg 63%
    17:00 +24°C° 0 mm 3 mps 758 mmHg 68%
    18:00 +23°C° 0 mm 2 mps 759 mmHg 72%
    19:00 +23°C° 0 mm 2 mps 759 mmHg 72%
    20:00 +23°C° 0 mm 2 mps 759 mmHg 72%
    21:00 +23°C° 0 mm 2 mps 760 mmHg 72%
    22:00 +23°C° 0 mm 2 mps 760 mmHg 73%
    23:00 +23°C° 0 mm 2 mps 760 mmHg 74%

    Day after tomorrow, 26 February, Monday

    Time Temperature Precipitation Wind Pressure Humidity
    00:00 +21°C° 0 mm 2 mps 760 mmHg 75%
    01:00 +21°C° 0 mm 2 mps 760 mmHg 76%
    02:00 +22°C° 0 mm 1 mps 760 mmHg 78%
    03:00 +19°C° 0 mm 0 mps 760 mmHg 80%
    04:00 +21°C° 0 mm 1 mps 760 mmHg 79%
    05:00 +21°C° 0 mm 1 mps 760 mmHg 79%
    06:00 +21°C° 0 mm 1 mps 760 mmHg 79%
    07:00 +22°C° 0 mm 1 mps 761 mmHg 74%
    08:00 +22°C° 0 mm 1 mps 761 mmHg 70%
    09:00 +23°C° 0 mm 1 mps 761 mmHg 66%
    10:00 +24°C° 0 mm 1 mps 761 mmHg 61%
    11:00 +24°C° 0 mm 1 mps 761 mmHg 57%
    12:00 +25°C° 0 mm 1 mps 760 mmHg 53%
    13:00 +25°C° 0 mm 2 mps 760 mmHg 51%
    14:00 +25°C° 0 mm 2 mps 759 mmHg 49%
    15:00 +26°C° 0 mm 3 mps 759 mmHg 47%
    16:00 +25°C° 0 mm 3 mps 758 mmHg 49%
    17:00 +25°C° 0 mm 3 mps 758 mmHg 51%
    18:00 +24°C° 0 mm 3 mps 758 mmHg 53%
    19:00 +23°C° 0 mm 4 mps 759 mmHg 55%
    20:00 +23°C° 0 mm 4 mps 759 mmHg 56%
    21:00 +22°C° 0 mm 4 mps 759 mmHg 58%
    22:00 +22°C° 0 mm 4 mps 759 mmHg 61%
    23:00 +22°C° 0 mm 4 mps 759 mmHg 64%

    27 February, Tuesday

    Time Temperature Precipitation Wind Pressure Humidity
    00:00 +22°C° 0 mm 4 mps 759 mmHg 67%
    01:00 +22°C° 0 mm 4 mps 758 mmHg 67%
    02:00 +22°C° 0 mm 4 mps 758 mmHg 68%
    03:00 +22°C° 0 mm 5 mps 758 mmHg 68%
    04:00 +22°C° 0 mm 4 mps 758 mmHg 68%
    05:00 +21°C° 0 mm 4 mps 758 mmHg 69%
    06:00 +21°C° 0 mm 4 mps 758 mmHg 69%
    07:00 +22°C° 0.1 mm 4 mps 759 mmHg 65%
    08:00 +23°C° 0.1 mm 4 mps 759 mmHg 60%
    09:00 +23°C° 0.1 mm 4 mps 760 mmHg 56%
    10:00 +25°C° 0.1 mm 4 mps 759 mmHg 51%
    11:00 +26°C° 0.1 mm 4 mps 759 mmHg 47%
    12:00 +27°C° 0.1 mm 4 mps 758 mmHg 42%
    13:00 +28°C° 0 mm 4 mps 758 mmHg 40%
    14:00 +28°C° 0 mm 4 mps 757 mmHg 38%
    15:00 +29°C° 0 mm 4 mps 757 mmHg 35%
    16:00 +28°C° 0.1 mm 4 mps 757 mmHg 38%
    17:00 +28°C° 0.1 mm 4 mps 757 mmHg 41%
    18:00 +27°C° 0.1 mm 4 mps 757 mmHg 44%
    19:00 +27°C° 0.1 mm 5 mps 758 mmHg 46%
    20:00 +26°C° 0.1 mm 5 mps 758 mmHg 48%
    21:00 +26°C° 0.1 mm 5 mps 758 mmHg 51%
    22:00 +25°C° 0 mm 5 mps 758 mmHg 54%
    23:00 +25°C° 0 mm 5 mps 758 mmHg 57%

    28 February, Wednesday

    Time Temperature Precipitation Wind Pressure Humidity
    00:00 +23°C° 0 mm 4 mps 757 mmHg 60%
    01:00 +23°C° 0.1 mm 4 mps 757 mmHg 62%
    02:00 +23°C° 0.1 mm 4 mps 757 mmHg 63%
    03:00 +23°C° 0.1 mm 4 mps 756 mmHg 65%
    04:00 +22°C° 0.1 mm 3 mps 757 mmHg 66%
    05:00 +22°C° 0.1 mm 3 mps 757 mmHg 68%
    06:00 +23°C° 0.1 mm 2 mps 758 mmHg 70%
    07:00 +23°C° 0.2 mm 2 mps 758 mmHg 67%
    08:00 +24°C° 0.2 mm 2 mps 759 mmHg 64%
    09:00 +24°C° 0.2 mm 2 mps 759 mmHg 61%
    10:00 +25°C° 0.3 mm 2 mps 759 mmHg 60%
    11:00 +25°C° 0.3 mm 2 mps 759 mmHg 59%
    12:00 +25°C° 0.3 mm 2 mps 758 mmHg 57%
    13:00 +26°C° 0.1 mm 2 mps 758 mmHg 55%
    14:00 +26°C° 0.1 mm 2 mps 757 mmHg 53%
    15:00 +27°C° 0.1 mm 2 mps 757 mmHg 51%
    16:00 +27°C° 0.3 mm 2 mps 757 mmHg 53%
    17:00 +26°C° 0.3 mm 3 mps 757 mmHg 55%
    18:00 +26°C° 0.3 mm 3 mps 757 mmHg 57%
    19:00 +25°C° 0.2 mm 4 mps 757 mmHg 61%
    20:00 +23°C° 0.2 mm 4 mps 758 mmHg 65%
    21:00 +22°C° 0.2 mm 4 mps 758 mmHg 68%
    22:00 +22°C° 0.1 mm 4 mps 758 mmHg 70%
    23:00 +22°C° 0.1 mm 4 mps 757 mmHg 72%

    1 March, Thursday

    Time Temperature Precipitation Wind Pressure Humidity
    00:00 +22°C° 0.1 mm 4 mps 757 mmHg 74%
    01:00 +21°C° 0 mm 4 mps 757 mmHg 75%
    02:00 +21°C° 0 mm 3 mps 757 mmHg 76%
    03:00 +21°C° 0 mm 3 mps 758 mmHg 76%
    04:00 +21°C° 0 mm 2 mps 758 mmHg 75%
    05:00 +21°C° 0 mm 2 mps 758 mmHg 75%
    06:00 +22°C° 0 mm 1 mps 759 mmHg 74%
    07:00 +23°C° 0 mm 2 mps 759 mmHg 70%
    08:00 +23°C° 0 mm 2 mps 759 mmHg 65%
    09:00 +24°C° 0 mm 3 mps 759 mmHg 61%
    10:00 +24°C° 0 mm 3 mps 759 mmHg 56%
    11:00 +25°C° 0 mm 3 mps 758 mmHg 52%
    12:00 +26°C° 0 mm 3 mps 758 mmHg 47%
    13:00 +26°C° 0 mm 4 mps 757 mmHg 46%
    14:00 +26°C° 0 mm 4 mps 757 mmHg 46%
    15:00 +26°C° 0 mm 5 mps 757 mmHg 45%
    16:00 +25°C° 0 mm 5 mps 757 mmHg 50%
    17:00 +25°C° 0 mm 5 mps 757 mmHg 56%
    18:00 +23°C° 0 mm 5 mps 758 mmHg 61%
    19:00 +22°C° 0 mm 5 mps 758 mmHg 63%
    20:00 +22°C° 0 mm 5 mps 758 mmHg 64%
    21:00 +22°C° 0 mm 5 mps 758 mmHg 65%
    22:00 +22°C° 0 mm 5 mps 758 mmHg 65%
    23:00 +22°C° 0 mm 5 mps 758 mmHg 65%
    Show more